"Pseudo-MPEC" for P20JECT

Created 2018 Oct 13 14:18:05 UT using Find_Orb

Click here for an explanation of pseudo-MPECs

 
 Astrometry: 
     P20JECT  C2018 10 10D[Astrometry+U_!%^NyBBN\'`7w34*hvop-CM1qwp\L+A^=vfy#F52
     P20JECT  C2018 10 10MjU:$_][5RQBuX^a)51cL]IG]-dYt=7!-F;e_xFt*RdTAnCRWo6MF52
     P20JECT  C2018 10 10hZ-bwxc^DXJ)1p#;sug'[$Ilt_Mj2;KsWHqta;R1x=[U38N.%/%:F52
     P20JECT  C2018 10 104N,b33,yNWM_ZDYA:f,l)AHYv%^`*RN29jyLvxUTK:hJtc`o0CjXF52
     P20JECT KC2018 10 12`J/?bI#;w5Tg4Z=f5redacted;K8P9J40KDSpWmt@f\iiQf$_-8@H21
     P20JECT KC2018 10 12$%UPq+ig/F!sKy'uVtov;,?*]_cwlU=q4L!+2DLAj';p'Bk7p;heH21
     P20JECT KC2018 10 12G-p^m3[9hRd#%ebk0ifTp'$w#p5N1Wm2d=p1PRK?*ivcU^T?MAsxH21
     P20JECT |C2018 10 12xuZHdb3AUE`s;q#GvB,frou1$:8yg6U?25APQTLaSf4I77p44T,L807
     P20JECT |C2018 10 12O=PCVOdl**XtKc%Z5f3U6l8-Zc425=P?see:`n%RS/e'4N,n=M\r807
     P20JECT |C2018 10 12'rd?YEyw322QRkJ.-Ys4H!uHRjO%UI8TH5A4HLPTrRTBaV4P$6%t807
     P20JECT pC2018 10 12T'MEW,TZDb\4)q60Gj(TxJ;nOE*e$%t,,s=lMwji3$L*:\,^d`75L01
     P20JECT pC2018 10 12!+o**J/YDo?=21D/!gBZ9'Nv3g`sXON=EXHy\1XZwwlbuUcbQwXLL01
     P20JECT pC2018 10 12RE98qhF4g%6f;!DB[usM]I\14xgl$?8=20hTWA6m-QH+M*GNEOCPL01

Station data:
(807) Cerro Tololo Observatory, La Serena  (S30.169136 W70.805900)  Chile.
   1.5-m Ritchey-Chrétien.
(F52) Pan-STARRS 2, Haleakala  (N20.707384 W156.255910)  US/Hawaii.
(H21) Astronomical Research Observatory, Westfield  (N39.483057 W87.968270)
   US/Illinois. 0.76-m f/3.0 astrograph + CCD.
(L01) Višnjan Observatory, Tičan  (N45.290900 E13.749300)  Croatia.  Observer
   K. Korlević. 1.0-m f/2.9 reflector + CCD.

Orbital elements:  P20JECT
   Perihelion 2019 May 23.646367 +/- 20.7 TT = 15:30:46 (JD 2458627.146367)
Epoch 2018 Oct 12.0 TT = JDT 2458403.5   Earth MOID: 0.6914   AutoNEOCP
M 299.59875 +/- 7                   (J2000 ecliptic)
n   0.27007478 +/- 0.0121           Peri.  306.12725 +/- 2.8
a   2.37035479 +/- 0.0709           Node   158.36102 +/- 1.3
e   0.3262562 +/- 0.0364            Incl.   22.70328 +/- 1.5
P   3.65                   H 18.6   G  0.15   U  9.8  
q 1.59701177 +/- 0.0419    Q 3.14369780 +/- 0.184
From 13 observations 2018 Oct. 10-12; mean residual 0".26
Residuals in arcseconds: 
181010 F52  .09-  .04-    181012 H21  .24+  .08+    181012 L01  .05-  .38+    
181010 F52  .21+  .03-    181012 H21  .20+  .13-    181012 L01  .35+  .17+    
181010 F52  .15-  .18+    181012 807  .06+  .05-    181012 L01  .76-  .12-    
181010 F52  .19-  .09+    181012 807  .37-  .05-    
181012 H21  .03-  .27-    181012 807  .56+  .17-    

Ephemerides (geocentric):
Date (UTC) HH   RA              Dec         delta   r     elong  mag " sig PA
---- -- -- --  -------------   -----------  ------ ------ -----  --- ---- ---
2018 10 13 14  00 04 37.989   -19 27 16.73  1.3036 2.2132 147.9 21.7  .48  13
2018 10 13 15  00 04 36.029   -19 27 47.72  1.3037 2.2131 147.8 21.7  .49  13
2018 10 13 16  00 04 34.070   -19 28 18.68  1.3038 2.2129 147.8 21.7  .51  13
2018 10 13 17  00 04 32.113   -19 28 49.59  1.3039 2.2128 147.8 21.7  .53  13
2018 10 13 18  00 04 30.158   -19 29 20.47  1.3040 2.2126 147.7 21.7  .55  12
2018 10 13 19  00 04 28.204   -19 29 51.31  1.3041 2.2125 147.7 21.7  .57  12
2018 10 13 20  00 04 26.252   -19 30 22.11  1.3042 2.2123 147.6 21.7  .59  12
2018 10 13 21  00 04 24.302   -19 30 52.87  1.3044 2.2121 147.6 21.7  .61  12
2018 10 13 22  00 04 22.353   -19 31 23.59  1.3045 2.2120 147.5 21.7  .63  12
2018 10 13 23  00 04 20.406   -19 31 54.27  1.3046 2.2118 147.5 21.7  .66  12
2018 10 14 00  00 04 18.461   -19 32 24.91  1.3047 2.2117 147.4 21.7  .68  12
2018 10 14 01  00 04 16.517   -19 32 55.51  1.3048 2.2115 147.4 21.7  .70  12
2018 10 14 02  00 04 14.575   -19 33 26.07  1.3049 2.2113 147.4 21.7  .73  12
2018 10 14 03  00 04 12.635   -19 33 56.59  1.3050 2.2112 147.3 21.7  .75  12
2018 10 14 04  00 04 10.697   -19 34 27.08  1.3051 2.2110 147.3 21.7  .77  12
2018 10 14 05  00 04 08.760   -19 34 57.52  1.3052 2.2109 147.2 21.7  .80  12
2018 10 14 06  00 04 06.825   -19 35 27.93  1.3053 2.2107 147.2 21.7  .82  12
2018 10 14 07  00 04 04.892   -19 35 58.29  1.3054 2.2105 147.1 21.7  .85  12
2018 10 14 08  00 04 02.961   -19 36 28.62  1.3055 2.2104 147.1 21.7  .88  12
2018 10 14 09  00 04 01.031   -19 36 58.90  1.3056 2.2102 147.0 21.7  .90  12
2018 10 14 10  00 03 59.103   -19 37 29.15  1.3057 2.2101 147.0 21.7  .93  12
2018 10 14 11  00 03 57.177   -19 37 59.36  1.3058 2.2099 147.0 21.7  .96  12
2018 10 14 12  00 03 55.253   -19 38 29.52  1.3059 2.2097 146.9 21.7  .99  12
2018 10 14 13  00 03 53.330   -19 38 59.65  1.3060 2.2096 146.9 21.7  1.0  12
2018 10 14 14  00 03 51.409   -19 39 29.74  1.3061 2.2094 146.8 21.7  1.0  12
2018 10 14 15  00 03 49.490   -19 39 59.79  1.3062 2.2093 146.8 21.7  1.1  12
2018 10 14 16  00 03 47.573   -19 40 29.80  1.3064 2.2091 146.7 21.7  1.1  12
2018 10 14 17  00 03 45.657   -19 40 59.77  1.3065 2.2089 146.7 21.7  1.1  12
2018 10 14 18  00 03 43.744   -19 41 29.69  1.3066 2.2088 146.6 21.7  1.2  12
2018 10 14 19  00 03 41.832   -19 41 59.58  1.3067 2.2086 146.6 21.7  1.2  12
2018 10 14 20  00 03 39.922   -19 42 29.43  1.3068 2.2085 146.5 21.7  1.2  12
2018 10 14 21  00 03 38.013   -19 42 59.24  1.3069 2.2083 146.5 21.7  1.3  12
2018 10 14 22  00 03 36.107   -19 43 29.01  1.3070 2.2082 146.5 21.7  1.3  12
2018 10 14 23  00 03 34.202   -19 43 58.74  1.3071 2.2080 146.4 21.7  1.3  12
2018 10 15 00  00 03 32.299   -19 44 28.43  1.3072 2.2078 146.4 21.7  1.4  12
2018 10 15 01  00 03 30.398   -19 44 58.08  1.3074 2.2077 146.3 21.7  1.4  12
2018 10 15 02  00 03 28.499   -19 45 27.69  1.3075 2.2075 146.3 21.7  1.4  13
2018 10 15 03  00 03 26.602   -19 45 57.26  1.3076 2.2074 146.2 21.7  1.5  13
2018 10 15 04  00 03 24.707   -19 46 26.79  1.3077 2.2072 146.2 21.7  1.5  13
2018 10 15 05  00 03 22.813   -19 46 56.28  1.3078 2.2070 146.1 21.7  1.5  13
2018 10 15 06  00 03 20.921   -19 47 25.73  1.3079 2.2069 146.1 21.7  1.6  13
2018 10 15 07  00 03 19.031   -19 47 55.14  1.3080 2.2067 146.1 21.8  1.6  13
2018 10 15 08  00 03 17.143   -19 48 24.51  1.3082 2.2066 146.0 21.8  1.7  13
2018 10 15 09  00 03 15.257   -19 48 53.84  1.3083 2.2064 146.0 21.8  1.7  13
2018 10 15 10  00 03 13.373   -19 49 23.12  1.3084 2.2062 145.9 21.8  1.7  13
2018 10 15 11  00 03 11.490   -19 49 52.37  1.3085 2.2061 145.9 21.8  1.8  13
2018 10 15 12  00 03 09.610   -19 50 21.58  1.3086 2.2059 145.8 21.8  1.8  13
2018 10 15 13  00 03 07.731   -19 50 50.75  1.3087 2.2058 145.8 21.8  1.9  13